User: anonymous
Location: Stull Observatory
(42.2506°N, 77.7903°W)
Time: 07:54:14
(UTC-04:00)
Language:

Abrixas rocket - Orbit

View from above orbital plane
View from above orbital plane
View from above satellite
View from above satellite

Ground track
Ground track

The orbit data is extracted from the following two-line orbital elements,

1 25723U 99022C   14202.89009779  .00003064  00000-0  11070-3 0  6980
2 25723 048.4255 342.6244 0016221 024.0179 115.7976 15.31356563842478
Epoch (UTC): 21 July 2014 21:21:44
Eccentricity: 0.0016221
inclination: 48.4255°
perigee height: 460 km
apogee height: 483 km
right ascension of ascending node: 342.6244°
argument of perigee: 24.0179°
revolutions per day: 15.31356563
mean anomaly at epoch: 115.7976°
orbit number at epoch: 84247

The dashed part of the orbit path shows where the satellite is in the earth's shadow,  

DLR